FW5694 Weather Reports


time (UTC)temp
C
wind
direction
speed
KPH
gust
KPH
rain 1hr
cm
rain 24hr
cm
rain mn
cm
humidity
%
barometer
mb
20260510171530 25 0 0.0 14.5 0.00 0.74 0.00 86 1014.3
20260510171012 25 0 0.0 14.5 0.00 0.74 0.00 86 1014.3
20260510170511 25 38 3.2 14.5 0.00 0.74 0.00 86 1014.4
20260510170030 26 352 1.6 14.5 0.00 0.74 0.00 85 1014.3
20260510165509 26 25 4.8 16.1 0.00 0.74 0.00 85 1014.3
20260510165011 26 39 4.8 16.1 0.00 0.74 0.00 86 1014.4
20260510164529 26 53 8.0 17.7 0.00 0.74 0.00 84 1014.4
20260510164010 26 26 4.8 17.7 0.00 0.74 0.00 83 1014.4
20260510163510 27 64 6.4 17.7 0.00 0.74 0.00 81 1014.6
20260510163029 27 62 1.6 16.1 0.00 0.74 0.00 79 1014.6
20260510162514 28 61 3.2 16.1 0.00 0.74 0.00 76 1014.6
20260510162017 29 0 0.0 3.2 0.00 0.74 0.00 71 1014.4
20260510161527 29 0 0.0 8.0 0.00 0.74 0.00 71 1014.6
20260510161011 28 0 0.0 8.0 0.00 0.74 0.00 72 1014.4
20260510160515 28 0 0.0 8.0 0.00 0.74 0.00 72 1014.4
20260510160033 28 0 0.0 0.0 0.00 0.74 0.00 74 1014.5
20260510155520 28 0 0.0 0.0 0.00 0.74 0.00 75 1014.5
20260510155011 28 0 0.0 3.2 0.00 0.74 0.00 76 1014.7
20260510154528 28 0 0.0 4.8 0.00 0.74 0.00 76 1014.8
20260510154011 28 0 0.0 4.8 0.00 0.74 0.00 75 1014.9
20260510153513 28 0 0.0 4.8 0.00 0.74 0.00 76 1014.8
20260510153030 27 0 0.0 4.8 0.00 0.74 0.00 76 1014.9
20260510152515 27 0 0.0 16.1 0.00 0.74 0.00 77 1014.7
20260510152011 27 0 3.2 16.1 0.00 0.74 0.00 77 1014.7
20260510151527 27 270 4.8 16.1 0.00 0.74 0.00 77 1014.7
20260510151010 27 264 4.8 16.1 0.00 0.74 0.00 77 1014.6
20260510150510 27 239 3.2 12.9 0.00 0.74 0.00 78 1014.5
20260510150028 27 265 3.2 12.9 0.00 0.74 0.00 79 1014.5
20260510145513 27 272 3.2 14.5 0.00 0.74 0.00 79 1014.3
20260510145013 27 0 4.8 16.1 0.00 0.74 0.00 79 1014.4
20260510144537 26 248 6.4 16.1 0.00 0.74 0.00 80 1014.3
20260510144014 26 252 8.0 17.7 0.00 0.74 0.00 80 1014.2
20260510143512 26 223 3.2 19.3 0.00 0.74 0.00 81 1014.2
20260510143043 26 232 9.7 19.3 0.00 0.74 0.00 81 1014.4
20260510142512 26 258 9.7 19.3 0.00 0.74 0.00 82 1014.3
20260510142011 26 290 8.0 17.7 0.00 0.74 0.00 84 1014.2
20260510141535 26 248 3.2 17.7 0.00 0.74 0.00 84 1014.2
20260510141011 26 250 6.4 17.7 0.00 0.74 0.00 85 1014.1
20260510140509 25 278 8.0 17.7 0.00 0.74 0.00 86 1014.0
20260510140032 25 0 6.4 17.7 0.00 0.74 0.00 87 1014.0
20260510135519 25 224 6.4 17.7 0.00 0.74 0.00 87 1014.0
20260510135008 25 0 1.6 14.5 0.00 0.74 0.00 89 1013.8
20260510134528 25 286 3.2 16.1 0.00 0.74 0.00 89 1013.8
20260510134107 25 242 4.8 20.9 0.00 0.74 0.00 90 1013.7
20260510133510 24 213 9.7 20.9 0.00 0.74 0.00 90 1013.7
20260510133034 24 263 8.0 17.7 0.00 0.74 0.00 91 1013.6
20260510132512 24 250 8.0 17.7 0.00 0.74 0.00 91 1013.6
20260510132009 24 234 9.7 17.7 0.00 0.74 0.00 91 1013.6
20260510131530 24 243 9.7 16.1 0.00 0.74 0.00 92 1013.4
20260510131008 24 0 3.2 17.7 0.00 0.74 0.00 92 1013.4
20260510130510 23 247 8.0 17.7 0.00 0.74 0.00 93 1013.3
20260510130028 23 254 9.7 17.7 0.00 0.74 0.00 93 1013.4
20260510125511 23 0 0.0 16.1 0.00 0.74 0.00 93 1013.4
20260510125011 23 275 6.4 16.1 0.00 0.74 0.00 93 1013.4
20260510124527 23 240 3.2 19.3 0.00 0.74 0.00 93 1013.4
20260510124009 23 221 8.0 19.3 0.00 0.74 0.00 93 1013.3
20260510123510 23 241 9.7 17.7 0.00 0.74 0.00 93 1013.2
20260510123030 23 248 9.7 17.7 0.00 0.74 0.00 94 1013.2
20260510122510 23 0 0.0 11.3 0.00 0.74 0.00 93 1013.0
20260510122011 23 0 1.6 12.9 0.00 0.74 0.00 94 1012.9
20260510121530 23 242 3.2 12.9 0.00 0.74 0.00 94 1013.0
20260510121010 23 0 3.2 12.9 0.00 0.74 0.00 94 1012.8
20260510120511 23 215 3.2 12.9 0.00 0.74 0.00 94 1012.9
20260510120028 23 265 3.2 9.7 0.00 0.74 0.00 94 1012.9
20260510115510 22 0 0.0 9.7 0.00 0.74 0.00 94 1012.7
20260510115010 22 0 0.0 11.3 0.00 0.74 0.00 94 1012.7
20260510114527 22 0 0.0 11.3 0.00 0.74 0.00 94 1012.7
20260510114010 22 243 3.2 11.3 0.00 0.74 0.00 93 1012.7
20260510113508 22 0 0.0 11.3 0.00 0.74 0.00 94 1012.6
20260510113026 22 0 3.2 11.3 0.00 0.74 0.00 94 1012.4
20260510112509 22 0 0.0 6.4 0.00 0.74 0.00 94 1012.3
20260510112010 22 0 0.0 4.8 0.00 0.74 0.00 94 1012.3
20260510111528 22 0 0.0 4.8 0.00 0.74 0.00 94 1012.1
20260510111011 22 0 0.0 6.4 0.00 0.74 0.00 93 1012.3
20260510110511 22 0 0.0 12.9 0.00 0.74 0.00 93 1012.2
20260510110030 22 240 4.8 12.9 0.00 0.74 0.00 93 1012.2
20260510105511 22 246 1.6 11.3 0.00 0.74 0.00 94 1012.2
20260510105010 22 0 0.0 0.0 0.00 0.74 0.00 94 1012.1
20260510104528 22 0 0.0 0.0 0.00 0.74 0.00 94 1012.0
20260510104011 22 0 0.0 0.0 0.00 0.74 0.00 93 1011.8
20260510103510 22 0 0.0 0.0 0.00 0.74 0.00 93 1011.9
20260510103029 22 0 0.0 0.0 0.00 0.74 0.00 93 1011.7
20260510102511 22 0 0.0 0.0 0.00 0.74 0.00 93 1011.7
20260510102013 22 0 0.0 0.0 0.00 0.74 0.00 93 1011.7
20260510101528 22 0 0.0 0.0 0.00 0.74 0.00 93 1011.6
20260510101009 22 0 0.0 0.0 0.00 0.74 0.00 93 1011.4
20260510100510 22 0 0.0 0.0 0.00 0.74 0.00 93 1011.4
20260510100026 22 0 0.0 1.6 0.00 0.74 0.00 93 1011.3
20260510095511 22 0 0.0 1.6 0.00 0.74 0.00 93 1011.3
20260510095011 22 0 0.0 1.6 0.00 0.74 0.00 93 1011.4
20260510094526 22 0 0.0 0.0 0.00 0.74 0.00 93 1011.3
20260510094009 22 0 0.0 12.9 0.00 0.74 0.00 93 1011.3
20260510093509 22 0 0.0 12.9 0.00 0.74 0.00 93 1011.2
20260510093028 22 0 0.0 0.0 0.00 0.74 0.00 93 1011.1
20260510092508 22 0 0.0 0.0 0.00 0.74 0.00 93 1011.2
20260510092008 22 0 0.0 0.0 0.00 0.74 0.00 93 1011.1
20260510091527 22 0 0.0 0.0 0.00 0.74 0.00 93 1011.1
20260510091011 22 0 0.0 0.0 0.00 0.74 0.00 93 1010.9
20260510090510 22 0 0.0 1.6 0.00 0.74 0.00 93 1010.9
20260510090030 22 0 0.0 1.6 0.00 0.74 0.00 93 1010.8
20260510085509 22 0 0.0 0.0 0.00 0.74 0.00 93 1010.8
20260510085012 23 0 0.0 0.0 0.00 0.74 0.00 93 1010.7
20260510084532 23 0 0.0 0.0 0.00 0.74 0.00 93 1010.5
20260510084010 23 0 0.0 0.0 0.00 0.74 0.00 93 1010.6
20260510083514 23 0 0.0 0.0 0.00 0.74 0.00 93 1010.5
20260510083035 23 0 0.0 0.0 0.00 0.74 0.00 92 1010.4
20260510082510 23 0 0.0 0.0 0.00 0.74 0.00 92 1010.4
20260510082010 23 0 0.0 0.0 0.00 0.74 0.00 92 1010.3
20260510081539 23 0 0.0 0.0 0.00 0.74 0.00 92 1010.4
20260510081011 23 0 0.0 0.0 0.00 0.74 0.00 93 1010.4
20260510080510 23 0 0.0 0.0 0.00 0.74 0.00 92 1010.4
20260510080030 23 0 0.0 0.0 0.00 0.74 0.00 92 1010.4
20260510075511 23 0 0.0 0.0 0.00 0.74 0.00 92 1010.4
20260510075008 23 0 0.0 0.0 0.00 0.74 0.00 92 1010.5
20260510074528 23 0 0.0 0.0 0.00 0.74 0.00 92 1010.4
20260510074012 23 0 0.0 0.0 0.00 0.74 0.00 92 1010.6
20260510073515 23 0 0.0 0.0 0.00 0.74 0.00 92 1010.6
20260510073028 23 0 0.0 0.0 0.00 0.74 0.00 92 1010.5
20260510072512 23 0 0.0 0.0 0.00 0.74 0.00 92 1010.6
20260510072009 23 0 0.0 0.0 0.00 0.74 0.00 92 1010.6
20260510071528 23 0 0.0 0.0 0.00 0.74 0.00 92 1010.7
20260510071009 23 0 0.0 0.0 0.00 0.74 0.00 92 1010.7
20260510070511 23 0 0.0 0.0 0.00 0.74 0.00 92 1010.8
20260510070028 23 0 0.0 0.0 0.00 0.74 0.00 92 1010.8
20260510065508 23 0 0.0 0.0 0.00 0.74 0.00 92 1010.8
20260510065009 23 0 0.0 6.4 0.00 0.74 0.00 92 1010.9
20260510064535 23 0 0.0 6.4 0.00 0.74 0.00 92 1011.0
20260510064010 23 0 0.0 0.0 0.00 0.74 0.00 92 1011.1
20260510063512 23 0 0.0 0.0 0.00 0.74 0.00 92 1011.3
20260510063038 23 0 0.0 0.0 0.00 0.74 0.00 92 1011.3
20260510062512 23 0 0.0 0.0 0.00 0.74 0.00 92 1011.4
20260510062013 22 0 0.0 3.2 0.00 0.74 0.00 92 1011.4
20260510061533 22 0 0.0 3.2 0.00 0.74 0.00 92 1011.5
20260510061009 22 0 0.0 0.0 0.00 0.74 0.00 92 1011.5
20260510060510 22 0 0.0 0.0 0.00 0.74 0.00 91 1011.6
20260510060041 23 0 0.0 0.0 0.00 0.74 0.00 92 1011.6
20260510055507 22 0 0.0 0.0 0.00 0.74 0.00 92 1011.7
20260510055010 22 0 0.0 6.4 0.00 0.74 0.00 92 1011.7
20260510054528 22 0 0.0 6.4 0.00 0.74 0.00 92 1011.8
20260510054012 23 0 0.0 0.0 0.00 0.74 0.00 92 1012.0
20260510053511 23 0 0.0 0.0 0.00 0.74 0.00 92 1011.9
20260510053038 22 0 0.0 0.0 0.00 0.74 0.00 92 1011.9
20260510052510 22 0 0.0 0.0 0.00 0.74 0.00 92 1011.9
20260510052015 22 0 0.0 0.0 0.00 0.74 0.00 91 1012.0
20260510051528 22 0 0.0 0.0 0.00 0.74 0.00 92 1012.1
20260510051011 22 0 0.0 0.0 0.00 0.74 0.00 91 1012.1
20260510050509 23 0 0.0 0.0 0.00 0.74 0.00 91 1012.3
20260510050028 23 0 0.0 0.0 0.00 0.74 0.00 91 1012.3
20260510045509 22 0 0.0 0.0 0.00 0.74 0.00 91 1012.4
20260510045010 23 0 0.0 0.0 0.00 0.74 0.00 91 1012.3
20260510044543 23 0 0.0 0.0 0.00 0.74 0.00 91 1012.3
20260510044010 23 0 0.0 0.0 0.00 0.74 0.00 91 1012.4
20260510043510 23 0 0.0 0.0 0.00 0.74 0.00 91 1012.4
20260510043031 23 0 0.0 0.0 0.00 0.74 0.00 91 1012.4
20260510042510 22 0 0.0 0.0 0.00 0.74 0.00 91 1012.4
20260510042010 22 0 0.0 0.0 0.00 0.74 0.00 90 1012.5
20260510041527 23 0 0.0 0.0 0.00 0.74 0.00 89 1012.4
20260510041010 23 0 0.0 0.0 0.00 0.74 0.00 90 1012.4
20260510040510 22 0 0.0 1.6 0.00 0.74 0.00 89 1012.4
20260510040038 22 0 0.0 1.6 0.00 0.74 0.00 89 1012.4
20260510035508 23 0 0.0 0.0 0.00 0.74 0.74 89 1012.4
20260510035012 23 0 0.0 0.0 0.00 0.74 0.74 89 1012.5
20260510034527 23 0 0.0 0.0 0.00 0.74 0.74 89 1012.6
20260510034011 23 0 0.0 0.0 0.00 0.74 0.74 88 1012.4
20260510033511 23 0 0.0 9.7 0.00 0.74 0.74 88 1012.4
20260510033046 23 0 0.0 9.7 0.00 0.74 0.74 87 1012.4
20260510032511 24 0 0.0 9.7 0.00 0.74 0.74 88 1012.3
20260510032011 24 0 0.0 9.7 0.00 0.74 0.74 88 1012.4
20260510031528 24 0 1.6 9.7 0.00 0.74 0.74 88 1012.4
20260510031009 23 0 0.0 11.3 0.00 0.74 0.74 88 1012.5
20260510030515 23 0 1.6 11.3 0.00 0.74 0.74 88 1012.3
20260510030041 23 0 0.0 6.4 0.00 0.74 0.74 87 1012.2
20260510025510 23 0 0.0 4.8 0.00 0.74 0.74 87 1012.5
20260510025008 24 0 0.0 9.7 0.00 0.74 0.74 87 1012.3
20260510024529 23 0 0.0 9.7 0.00 0.74 0.74 87 1012.4
20260510024008 23 0 3.2 9.7 0.00 0.74 0.74 87 1011.9
20260510023509 23 0 0.0 6.4 0.00 0.74 0.74 88 1012.0
20260510023028 23 0 0.0 4.8 0.00 0.74 0.74 88 1011.9
20260510022510 23 0 0.0 1.6 0.00 0.74 0.74 88 1011.8
20260510022010 23 0 0.0 3.2 0.00 0.74 0.74 88 1012.2
20260510021527 23 0 0.0 4.8 0.00 0.74 0.74 88 1012.1
20260510021009 23 165 0.0 4.8 0.00 0.74 0.74 89 1011.9
20260510020509 23 0 0.0 0.0 0.00 0.74 0.74 89 1012.0
20260510020032 23 0 0.0 0.0 0.00 0.74 0.74 89 1011.9
20260510015514 23 0 0.0 1.6 0.00 0.74 0.74 90 1012.1
20260510015014 23 0 0.0 1.6 0.00 0.74 0.74 90 1011.7
20260510014535 23 0 0.0 0.0 0.00 0.74 0.74 90 1011.8
20260510014008 23 0 0.0 0.0 0.00 0.74 0.74 90 1011.8
20260510013508 23 0 0.0 0.0 0.00 0.74 0.74 90 1011.8
20260510013027 23 0 0.0 0.0 0.00 0.74 0.74 90 1011.6
20260510012507 23 0 0.0 0.0 0.00 0.74 0.74 90 1011.7
20260510012011 23 0 0.0 0.0 0.00 0.74 0.74 90 1011.8
20260510011528 23 0 0.0 0.0 0.00 0.74 0.74 89 1011.8
20260510011009 23 0 0.0 0.0 0.00 0.74 0.74 89 1011.7
20260510010510 23 0 0.0 0.0 0.00 0.74 0.74 89 1011.7
20260510010029 23 0 0.0 0.0 0.00 0.74 0.74 89 1011.7
20260510005509 23 0 0.0 0.0 0.00 0.74 0.74 89 1011.7
20260510005008 23 0 0.0 0.0 0.00 0.74 0.74 89 1011.7
20260510004531 23 0 0.0 0.0 0.00 0.74 0.74 89 1011.7
20260510004007 23 0 0.0 0.0 0.00 0.74 0.74 89 1011.5
20260510003508 23 0 0.0 0.0 0.00 0.74 0.74 89 1011.3
20260510003028 23 0 0.0 0.0 0.00 0.74 0.74 89 1011.3
20260510002510 23 0 0.0 0.0 0.00 0.74 0.74 89 1011.3
20260510002009 23 0 0.0 0.0 0.00 0.74 0.74 89 1011.3
20260510001530 23 0 0.0 0.0 0.00 0.74 0.74 89 1011.2
20260510001010 23 0 0.0 0.0 0.00 0.74 0.74 89 1011.1
20260510000511 23 0 0.0 0.0 0.00 0.74 0.74 89 1011.0
20260510000028 23 0 0.0 0.0 0.00 0.74 0.74 89 1011.0
20260509235512 23 0 0.0 0.0 0.00 0.74 0.74 89 1011.0
20260509235009 23 0 0.0 0.0 0.00 0.74 0.74 89 1010.8
20260509234537 23 0 0.0 0.0 0.00 0.74 0.74 89 1010.8
20260509234013 23 0 0.0 0.0 0.00 0.74 0.74 88 1011.0
20260509233509 23 0 0.0 0.0 0.00 0.74 0.74 88 1010.8
20260509233026 23 0 0.0 0.0 0.00 0.74 0.74 88 1010.9
20260509232509 23 0 0.0 0.0 0.00 0.74 0.74 88 1010.8
20260509232008 23 0 0.0 0.0 0.00 0.74 0.74 88 1010.8
20260509231527 23 0 0.0 0.0 0.00 0.74 0.74 88 1010.7
20260509231008 23 0 0.0 0.0 0.00 0.74 0.74 88 1010.7
20260509230509 23 0 0.0 0.0 0.00 0.74 0.74 88 1010.5
20260509230028 23 0 0.0 3.2 0.00 0.74 0.74 88 1010.6
20260509225510 23 0 0.0 9.7 0.00 1.37 0.74 88 1010.6
20260509225009 23 0 1.6 9.7 0.00 1.37 0.74 88 1010.5
20260509224525 23 0 0.0 1.6 0.00 1.37 0.74 88 1010.4
20260509224009 23 0 0.0 1.6 0.00 1.37 0.74 88 1010.5
20260509223508 23 0 0.0 8.0 0.00 1.37 0.74 88 1010.4
20260509223030 23 0 0.0 8.0 0.00 1.37 0.74 88 1010.5
20260509222510 23 350 0.0 6.4 0.00 1.37 0.74 89 1010.4
20260509222008 23 0 0.0 4.8 0.00 1.37 0.74 89 1010.4
20260509221535 23 0 0.0 1.6 0.00 1.37 0.74 89 1010.4
20260509221011 23 0 0.0 1.6 0.00 1.37 0.74 89 1010.5
20260509220508 23 0 0.0 0.0 0.00 1.37 0.74 89 1010.4
20260509220027 23 0 0.0 0.0 0.00 1.37 0.74 89 1010.5
20260509215510 23 0 0.0 0.0 0.00 1.98 0.74 90 1010.5
20260509215008 23 0 0.0 0.0 0.00 1.98 0.74 89 1010.5
20260509214527 23 0 0.0 0.0 0.00 1.98 0.74 89 1010.5
20260509214010 23 0 0.0 1.6 0.00 1.98 0.74 89 1010.4
20260509213508 23 0 0.0 1.6 0.00 1.98 0.74 89 1010.3
20260509213031 23 0 0.0 0.0 0.00 1.98 0.74 89 1010.4
20260509212513 23 0 0.0 0.0 0.00 1.98 0.74 89 1010.4
20260509212015 23 0 0.0 0.0 0.00 1.98 0.74 89 1010.3
20260509211528 23 0 0.0 1.6 0.00 1.98 0.74 89 1010.3
20260509211008 23 0 0.0 1.6 0.03 1.98 0.74 89 1010.5
20260509210510 24 0 0.0 8.0 0.03 1.98 0.74 89 1010.5
20260509210031 24 0 0.0 8.0 0.38 1.98 0.74 89 1010.4
20260509205507 25 0 0.0 3.2 0.56 1.98 0.74 90 1010.4
20260509205007 25 0 0.0 3.2 0.69 1.98 0.74 90 1010.4
20260509204530 25 0 0.0 1.6 0.69 1.98 0.74 90 1010.4
20260509204010 25 0 0.0 0.0 0.74 1.98 0.74 90 1010.5
20260509203508 25 0 0.0 0.0 0.74 1.98 0.74 90 1010.5
20260509203029 25 0 0.0 1.6 0.74 1.98 0.74 90 1010.5
20260509202511 25 0 0.0 1.6 0.74 1.98 0.74 90 1010.3
20260509202012 25 0 0.0 0.0 0.74 1.98 0.74 89 1010.3
20260509201526 25 0 0.0 1.6 0.74 1.98 0.74 89 1010.1
20260509201008 25 0 0.0 11.3 0.71 1.96 0.71 88 1010.2
20260509200509 25 0 0.0 16.1 0.69 1.93 0.69 89 1010.3
20260509200030 25 244 1.6 16.1 0.30 1.55 0.30 88 1010.9
20260509195512 25 0 0.0 6.4 0.15 1.40 0.15 88 1010.3
20260509195008 25 0 0.0 0.0 0.05 1.30 0.05 87 1010.2
20260509194528 25 0 0.0 1.6 0.05 1.30 0.05 87 1009.8
20260509194009 25 0 0.0 1.6 0.00 1.24 0.00 87 1010.1
20260509193513 25 0 0.0 1.6 0.00 1.24 0.00 86 1010.0
20260509193035 26 0 0.0 4.8 0.00 1.24 0.00 87 1010.0
20260509192509 26 0 0.0 4.8 0.00 1.24 0.00 86 1009.8
20260509192015 26 0 0.0 4.8 0.00 1.24 0.00 86 1009.7
20260509191529 26 0 0.0 4.8 0.00 1.24 0.00 86 1009.6
20260509191009 26 0 0.0 1.6 0.00 1.24 0.00 86 1009.8
20260509190508 26 0 0.0 3.2 0.00 1.24 0.00 85 1009.7
20260509190028 26 0 0.0 6.4 0.00 1.24 0.00 85 1009.8
20260509185509 26 0 0.0 6.4 0.00 1.24 0.00 85 1009.9
20260509185010 26 0 0.0 6.4 0.00 1.24 0.00 84 1009.8
20260509184538 26 0 0.0 3.2 0.00 1.24 0.00 85 1009.9
20260509184009 26 0 0.0 1.6 0.00 1.24 0.00 84 1010.0
20260509183509 26 0 0.0 1.6 0.00 1.24 0.00 85 1010.3
20260509183028 26 0 0.0 1.6 0.00 1.24 0.00 84 1010.4
20260509182510 27 0 0.0 4.8 0.00 1.24 0.00 85 1010.5
20260509182009 26 0 0.0 4.8 0.00 1.24 0.00 85 1010.6
20260509181529 27 41 0.0 4.8 0.00 1.24 0.00 85 1010.4
20260509181013 26 30 0.0 1.6 0.00 1.24 0.00 85 1010.7
20260509180510 26 0 0.0 4.8 0.00 1.24 0.00 85 1010.7
20260509180030 26 0 0.0 4.8 0.00 1.24 0.00 85 1010.8
20260509175510 26 0 0.0 4.8 0.00 1.24 0.00 85 1010.8
20260509175014 26 0 0.0 1.6 0.00 1.24 0.00 85 1010.9
20260509174529 27 0 0.0 3.2 0.00 1.24 0.00 85 1011.1
20260509174014 27 0 0.0 4.8 0.00 1.24 0.00 85 1011.0
20260509173508 26 46 0.0 4.8 0.00 1.24 0.00 86 1010.8
20260509173026 26 99 1.6 4.8 0.00 1.24 0.00 86 1010.9
20260509172516 26 90 0.0 3.2 0.00 1.24 0.00 86 1011.1
20260509172012 26 56 0.0 4.8 0.00 1.24 0.00 86 1011.0
20260509171540 26 69 1.6 4.8 0.00 1.24 0.00 86 1011.1